Location: Eisingen in Unterfranken
(49.7591°N, 9.8347°E)
Time: 13:01:01
(UTC+01:00)

N. Korean satellite - Pass Details

Date: 02 December 2022
Orbit: 407 x 441 km, 97.3° (Epoch: 05 February)

Event Time Altitude Azimuth Distance (km) Brightness Sun altitude
Rises 17:46:32 0° 207° (SSW) 2,449 10.9 -13.0°
Reaches altitude 10° 17:49:12 10° 231° (SW) 1,597 10.4 -13.4°
Maximum altitude 17:51:19 15° 270° (W) 1,315 9.9 -13.7°
Drops below altitude 10° 17:53:27 10° 308° (NW) 1,625 9.7 -14.0°
Sets 17:56:13 0° 331° (NNW) 2,517 10.3 -14.5°
